| time (UTC) | temp F | wind direction | speed MPH | gust MPH | rain 1hr in | rain 24hr in | rain mn in | humidity % | barometer mb |
| 20260903004600 | 66 | 170 | 3.0 | 10.0 | 0.00 | 0.00 | 0.00 | 78 | 1020.0 |
| 20260903003011 | 67 | 136 | 3.0 | 10.0 | 0.00 | 0.00 | 0.00 | 77 | 1020.0 |
| 20260903001556 | 67 | 181 | 3.0 | 7.0 | 0.00 | 0.00 | 0.00 | 77 | 1020.1 |
| 20260903000005 | 67 | 103 | 3.0 | 7.0 | 0.00 | 0.00 | 0.00 | 76 | 1020.2 |
| 20260902234552 | 68 | 135 | 1.0 | 3.0 | 0.00 | 0.00 | 0.00 | 75 | 1020.6 |
| 20260902233007 | 68 | 148 | 1.0 | 4.0 | 0.00 | 0.00 | 0.00 | 73 | 1020.8 |
| 20260902231554 | 68 | 128 | 2.0 | 4.0 | 0.00 | 0.00 | 0.00 | 72 | 1020.9 |
| 20260902230001 | 68 | 123 | 1.0 | 4.0 | 0.00 | 0.00 | 0.00 | 70 | 1020.8 |
| 20260902224556 | 69 | 129 | 1.0 | 6.0 | 0.00 | 0.00 | 0.00 | 70 | 1020.7 |
| 20260902223018 | 69 | 188 | 1.0 | 6.0 | 0.00 | 0.00 | 0.00 | 69 | 1021.2 |
| 20260902221540 | 69 | 145 | 1.0 | 9.0 | 0.00 | 0.00 | 0.00 | 68 | 1021.3 |
| 20260902220110 | 70 | 123 | 3.0 | 8.0 | 0.00 | 0.00 | 0.00 | 65 | 1021.1 |
| 20260902214552 | 70 | 151 | 3.0 | 9.0 | 0.00 | 0.00 | 0.00 | 63 | 1020.9 |
| 20260902213057 | 70 | 88 | 3.0 | 9.0 | 0.00 | 0.00 | 0.00 | 62 | 1021.0 |
| 20260902211527 | 71 | 80 | 3.0 | 10.0 | 0.00 | 0.00 | 0.00 | 62 | 1020.9 |
| 20260902210051 | 71 | 161 | 5.0 | 11.0 | 0.00 | 0.00 | 0.00 | 62 | 1020.5 |
| 20260902204605 | 71 | 133 | 2.0 | 7.0 | 0.00 | 0.00 | 0.00 | 61 | 1021.0 |
| 20260902203023 | 72 | 146 | 3.0 | 10.0 | 0.00 | 0.00 | 0.00 | 61 | 1021.1 |
| 20260902201548 | 72 | 88 | 2.0 | 8.0 | 0.00 | 0.00 | 0.00 | 61 | 1021.3 |
| 20260902200059 | 74 | 5 | 3.0 | 13.0 | 0.00 | 0.03 | 0.00 | 64 | 1021.5 |
| 20260902194528 | 73 | 161 | 2.0 | 7.0 | 0.00 | 0.03 | 0.00 | 66 | 1021.5 |
| 20260902193105 | 72 | 89 | 1.0 | 6.0 | 0.00 | 0.03 | 0.00 | 68 | 1021.6 |
| 20260902191539 | 72 | 133 | 2.0 | 9.0 | 0.00 | 0.03 | 0.00 | 66 | 1021.8 |
| 20260902190004 | 72 | 67 | 3.0 | 9.0 | 0.00 | 0.12 | 0.00 | 64 | 1021.9 |
| 20260902184543 | 73 | 96 | 3.0 | 9.0 | 0.00 | 0.12 | 0.00 | 61 | 1021.7 |
| 20260902183019 | 72 | 20 | 3.0 | 9.0 | 0.00 | 0.12 | 0.00 | 63 | 1021.9 |
| 20260902181542 | 73 | 74 | 1.0 | 10.0 | 0.00 | 0.12 | 0.00 | 69 | 1021.6 |
| 20260902180020 | 72 | 126 | 2.0 | 10.0 | 0.00 | 0.13 | 0.00 | 67 | 1021.7 |
| 20260902174551 | 72 | 126 | 2.0 | 8.0 | 0.00 | 0.13 | 0.00 | 69 | 1021.7 |
| 20260902173037 | 72 | 93 | 1.0 | 8.0 | 0.00 | 0.13 | 0.00 | 69 | 1021.8 |
| 20260902171545 | 72 | 114 | 1.0 | 10.0 | 0.00 | 0.13 | 0.00 | 69 | 1021.9 |
| 20260902170001 | 72 | 82 | 0.0 | 7.0 | 0.00 | 0.13 | 0.00 | 70 | 1022.0 |
| 20260902164536 | 71 | 117 | 1.0 | 8.0 | 0.00 | 0.13 | 0.00 | 73 | 1022.0 |
| 20260902163100 | 72 | 85 | 2.0 | 6.0 | 0.00 | 0.13 | 0.00 | 72 | 1022.2 |
| 20260902161531 | 71 | 162 | 1.0 | 6.0 | 0.00 | 0.13 | 0.00 | 76 | 1022.4 |
| 20260902160013 | 71 | 59 | 1.0 | 6.0 | 0.00 | 0.13 | 0.00 | 76 | 1022.7 |
| 20260902154550 | 70 | 84 | 1.0 | 8.0 | 0.00 | 0.13 | 0.00 | 78 | 1022.7 |
| 20260902153105 | 71 | 106 | 2.0 | 7.0 | 0.00 | 0.13 | 0.00 | 76 | 1022.9 |
| 20260902151546 | 71 | 113 | 1.0 | 4.0 | 0.00 | 0.13 | 0.00 | 77 | 1023.0 |
| 20260902150014 | 69 | 113 | 2.0 | 4.0 | 0.00 | 0.13 | 0.00 | 80 | 1023.1 |
| 20260902144553 | 69 | 55 | 1.0 | 6.0 | 0.00 | 0.13 | 0.00 | 83 | 1023.1 |
| 20260902143029 | 68 | 122 | 3.0 | 8.0 | 0.00 | 0.13 | 0.00 | 83 | 1022.8 |
| 20260902141559 | 69 | 54 | 1.0 | 7.0 | 0.00 | 0.13 | 0.00 | 84 | 1022.9 |
| 20260902140002 | 68 | 67 | 2.0 | 5.0 | 0.00 | 0.14 | 0.00 | 88 | 1022.4 |
| 20260902134524 | 66 | 63 | 1.0 | 4.0 | 0.00 | 0.14 | 0.00 | 92 | 1022.3 |
| 20260902133055 | 65 | 69 | 2.0 | 4.0 | 0.00 | 0.14 | 0.00 | 93 | 1022.2 |
| 20260902131620 | 64 | 40 | 0.0 | 3.0 | 0.00 | 0.14 | 0.00 | 95 | 1022.2 |
| 20260902130018 | 63 | 47 | 1.0 | 4.0 | 0.00 | 0.30 | 0.00 | 95 | 1022.5 |
| 20260902124612 | 63 | 80 | 2.0 | 4.0 | 0.00 | 0.30 | 0.00 | 95 | 1022.4 |
| 20260902123020 | 63 | 62 | 0.0 | 2.0 | 0.00 | 0.30 | 0.00 | 95 | 1022.6 |
| 20260902121603 | 62 | 156 | 0.0 | 3.0 | 0.00 | 0.30 | 0.00 | 95 | 1022.7 |
| 20260902120014 | 62 | 157 | 0.0 | 0.0 | 0.00 | 0.30 | 0.00 | 96 | 1022.7 |
| 20260902114556 | 62 | 157 | 0.0 | 0.0 | 0.00 | 0.30 | 0.00 | 96 | 1022.9 |
| 20260902113014 | 62 | 157 | 0.0 | 0.0 | 0.00 | 0.30 | 0.00 | 95 | 1022.9 |
| 20260902111601 | 62 | 157 | 0.0 | 0.0 | 0.00 | 0.30 | 0.00 | 95 | 1022.6 |
| 20260902110014 | 62 | 157 | 0.0 | 0.0 | 0.00 | 0.32 | 0.00 | 95 | 1022.6 |
| 20260902104551 | 62 | 157 | 0.0 | 0.0 | 0.00 | 0.32 | 0.00 | 95 | 1022.4 |
| 20260902103103 | 62 | 157 | 0.0 | 0.0 | 0.00 | 0.32 | 0.00 | 95 | 1022.0 |
| 20260902101553 | 62 | 157 | 0.0 | 0.0 | 0.00 | 0.32 | 0.00 | 95 | 1022.0 |
| 20260902100100 | 62 | 157 | 0.0 | 0.0 | 0.00 | 0.32 | 0.00 | 95 | 1021.8 |
| 20260902094545 | 62 | 157 | 0.0 | 0.0 | 0.00 | 0.32 | 0.00 | 95 | 1021.7 |
| 20260902093103 | 62 | 157 | 0.0 | 0.0 | 0.00 | 0.32 | 0.00 | 95 | 1021.6 |
| 20260902091534 | 62 | 157 | 0.0 | 0.0 | 0.00 | 0.32 | 0.00 | 95 | 1021.4 |
| 20260902090059 | 62 | 157 | 0.0 | 0.0 | 0.00 | 0.32 | 0.00 | 95 | 1021.3 |
| 20260902084528 | 62 | 157 | 0.0 | 0.0 | 0.00 | 0.32 | 0.00 | 95 | 1021.3 |
| 20260902083105 | 62 | 157 | 0.0 | 0.0 | 0.00 | 0.32 | 0.00 | 95 | 1021.1 |
| 20260902081534 | 62 | 157 | 0.0 | 0.0 | 0.00 | 0.32 | 0.00 | 95 | 1021.4 |
| 20260902080016 | 62 | 157 | 0.0 | 0.0 | 0.00 | 0.32 | 0.00 | 95 | 1021.4 |
| 20260902074536 | 62 | 157 | 0.0 | 0.0 | 0.00 | 0.32 | 0.00 | 95 | 1021.5 |
| 20260902073100 | 62 | 157 | 0.0 | 0.0 | 0.00 | 0.32 | 0.00 | 95 | 1021.6 |
| 20260902071506 | 62 | 157 | 0.0 | 0.0 | 0.00 | 0.32 | 0.00 | 95 | 1021.5 |
| 20260902070047 | 62 | 157 | 0.0 | 0.0 | 0.00 | 0.32 | 0.00 | 95 | 1021.2 |
| 20260902064552 | 62 | 157 | 0.0 | 0.0 | 0.00 | 0.32 | 0.00 | 95 | 1021.2 |
| 20260902063010 | 62 | 157 | 0.0 | 0.0 | 0.00 | 0.32 | 0.00 | 95 | 1021.3 |
| 20260902061616 | 62 | 157 | 0.0 | 0.0 | 0.00 | 0.32 | 0.00 | 95 | 1021.3 |
| 20260902060014 | 62 | 157 | 0.0 | 0.0 | 0.00 | 0.32 | 0.00 | 95 | 1021.3 |
| 20260902054557 | 62 | 157 | 0.0 | 0.0 | 0.00 | 0.32 | 0.00 | 95 | 1021.3 |
| 20260902053016 | 62 | 157 | 0.0 | 0.0 | 0.00 | 0.32 | 0.00 | 95 | 1021.2 |
| 20260902051608 | 62 | 157 | 0.0 | 1.0 | 0.00 | 0.32 | 0.00 | 95 | 1021.0 |
| 20260902050008 | 62 | 157 | 0.0 | 2.0 | 0.00 | 0.32 | 0.00 | 95 | 1020.9 |
| 20260902044556 | 62 | 157 | 0.0 | 0.0 | 0.00 | 0.32 | 0.00 | 95 | 1020.7 |
| 20260902043002 | 62 | 157 | 0.0 | 0.0 | 0.00 | 0.32 | 0.00 | 95 | 1020.5 |
| 20260902041555 | 61 | 157 | 0.0 | 0.0 | 0.00 | 0.32 | 0.00 | 94 | 1020.4 |
| 20260902040059 | 61 | 157 | 0.0 | 0.0 | 0.00 | 0.32 | 0.32 | 94 | 1020.1 |
| 20260902034540 | 62 | 157 | 0.0 | 0.0 | 0.00 | 0.32 | 0.32 | 94 | 1019.9 |
| 20260902033104 | 62 | 157 | 0.0 | 0.0 | 0.00 | 0.32 | 0.32 | 94 | 1019.6 |
| 20260902031534 | 63 | 157 | 0.0 | 1.0 | 0.00 | 0.32 | 0.32 | 94 | 1019.7 |
| 20260902030104 | 63 | 157 | 0.0 | 1.0 | 0.00 | 0.32 | 0.32 | 94 | 1019.7 |
| 20260902024530 | 63 | 157 | 0.0 | 1.0 | 0.00 | 0.32 | 0.32 | 94 | 1019.7 |
| 20260902023104 | 63 | 157 | 0.0 | 1.0 | 0.00 | 0.32 | 0.32 | 94 | 1020.0 |
| 20260902021523 | 63 | 157 | 0.0 | 1.0 | 0.00 | 0.32 | 0.32 | 94 | 1020.0 |
| 20260902020058 | 63 | 157 | 0.0 | 1.0 | 0.00 | 0.32 | 0.32 | 94 | 1019.9 |
| 20260902014515 | 63 | 157 | 0.0 | 1.0 | 0.00 | 0.32 | 0.32 | 94 | 1019.9 |
| 20260902013050 | 63 | 157 | 0.0 | 1.0 | 0.00 | 0.32 | 0.32 | 94 | 1019.9 |
| 20260902011508 | 63 | 157 | 0.0 | 2.0 | 0.00 | 0.32 | 0.32 | 94 | 1019.8 |
| 20260902010043 | 63 | 157 | 0.0 | 0.0 | 0.00 | 0.32 | 0.32 | 94 | 1019.9 |